Find Starlink 36798

NORAD ID: 67798 Int'l Des: 2026-032 Owner: SPXS Country: US Constellation: starlink operational
LEOCIRCULARRETROGRADE

Current View

Loading 3D Globe...

About Starlink 36798

Description loading...

Upcoming Passes

Passes for default location (London). Set your location on the main map for personalized predictions.

Altitude History

Loading altitude history...

Two-Line Element Set

1 67798U 26032B 26145.45837483 .00026561 00000-0 82190-3 0 9993
2 67798 97.2856 333.5141 0002198 83.2837 276.8656 15.33453438 16722
Epoch: May 25, 2026 • Age: 19 hours

Current Status

Altitude 482.1 km
Velocity 7.62 km/s
Sub-Earth Point -41.35°S, 12.7°E
Launch Date Feb 15, 2026
Age 0.2 years
Type internet

Technical Details

Classification Payload
Mass 575.00 kg
Dry Mass 530.00 kg
Total Mass 575.00 kg
Length 0.30 m
Diameter 4.10 m
Span 29.00 m
Shape Box + pan
Manufacturer SPXS
Bus Type Starlink V2MO
Phase Status In Orbit
Owner/State SPXS/US

Most Searched